JAL158 RJSM-RJTT

Flight info

Callsign JAL158
Flight time N/A
Altitude 36000
Route HPE Y10 GODIN
Aircraft B738/M-SDE2E3FGHIRWXY/LB1

Departure

Time 2026-05-06 11:36
Airport Misawa Airport / Misawa Air Base (RJSM)

Arrival

Time N/A
Airport Tokyo Haneda International Airport (RJTT)
Time Latitude Longitude Altitude Speed Heading
2026-05-06 11:24 40.69725 141.38831 104 ft 0 kts 186°
2026-05-06 11:30 40.69741 141.38832 104 ft 2 kts 186°
2026-05-06 11:31 40.69757 141.38835 102 ft 2 kts 188°
2026-05-06 11:31 40.69773 141.38839 104 ft 2 kts 205°
2026-05-06 11:31 40.69782 141.38854 103 ft 2 kts 271°
2026-05-06 11:31 40.69782 141.38861 103 ft 0 kts 273°
2026-05-06 11:33 40.69782 141.38853 104 ft 5 kts 275°
2026-05-06 11:33 40.69809 141.38743 102 ft 16 kts 310°
2026-05-06 11:33 40.69892 141.38653 101 ft 15 kts 321°
2026-05-06 11:34 40.69968 141.38579 102 ft 13 kts 338°
2026-05-06 11:34 40.70057 141.38582 101 ft 13 kts
2026-05-06 11:34 40.70147 141.38597 100 ft 13 kts
2026-05-06 11:34 40.70201 141.38554 101 ft 0 kts 277°
2026-05-06 11:35 40.70201 141.38545 101 ft 8 kts 277°
2026-05-06 11:35 40.70226 141.38194 103 ft 72 kts 276°
2026-05-06 11:35 40.70291 141.37257 103 ft 132 kts 275°
2026-05-06 11:36 40.70400 141.35869 340 ft 162 kts 274°
2026-05-06 11:36 40.70478 141.34387 1198 ft 160 kts 272°
2026-05-06 11:36 40.70541 141.32841 1818 ft 177 kts 271°
2026-05-06 11:36 40.70622 141.31139 2415 ft 193 kts 271°
2026-05-06 11:37 40.70724 141.29298 2952 ft 215 kts 272°
2026-05-06 11:37 40.70843 141.27297 3768 ft 227 kts 272°
2026-05-06 11:37 40.70978 141.25119 4421 ft 246 kts 272°
2026-05-06 11:37 40.71119 141.22851 5382 ft 251 kts 272°
2026-05-06 11:38 40.71213 141.21311 6014 ft 254 kts 272°
2026-05-06 11:38 40.70994 141.19010 6983 ft 255 kts 248°
2026-05-06 11:38 40.69488 141.16683 8265 ft 262 kts 211°
2026-05-06 11:38 40.68328 141.16175 8915 ft 268 kts 192°
2026-05-06 11:39 40.66438 141.16002 9757 ft 278 kts 186°
2026-05-06 11:39 40.64485 141.15987 10540 ft 287 kts 185°
2026-05-06 11:39 40.62414 141.16006 11005 ft 304 kts 184°
2026-05-06 11:39 40.60235 141.15998 11432 ft 322 kts 185°
2026-05-06 11:40 40.57947 141.15950 12056 ft 332 kts 186°
2026-05-06 11:40 40.55622 141.15887 12858 ft 336 kts 186°
2026-05-06 11:40 40.53264 141.15823 13622 ft 341 kts 185°
2026-05-06 11:40 40.50875 141.15766 14384 ft 346 kts 185°
2026-05-06 11:41 40.48439 141.15713 15131 ft 352 kts 185°
2026-05-06 11:41 40.46015 141.15661 15887 ft 356 kts 185°
2026-05-06 11:41 40.43510 141.15605 16617 ft 360 kts 185°
2026-05-06 11:41 40.40967 141.15547 17328 ft 365 kts 185°
2026-05-06 11:42 40.38409 141.15487 17996 ft 370 kts 185°
2026-05-06 11:42 40.35845 141.15428 18672 ft 374 kts 185°
2026-05-06 11:42 40.33221 141.15368 19307 ft 379 kts 185°
2026-05-06 11:42 40.30562 141.15307 19960 ft 383 kts 185°
2026-05-06 11:43 40.27900 141.15247 20582 ft 387 kts 185°
2026-05-06 11:43 40.25153 141.15185 21190 ft 391 kts 185°
2026-05-06 11:43 40.22451 141.15124 21765 ft 395 kts 185°
2026-05-06 11:44 40.16883 141.14998 22882 ft 403 kts 185°
2026-05-06 11:44 40.14057 141.14934 23420 ft 407 kts 185°
2026-05-06 11:44 40.11247 141.14870 23934 ft 410 kts 185°
2026-05-06 11:44 40.08375 141.14805 24461 ft 413 kts 185°
2026-05-06 11:45 40.05488 141.14740 24961 ft 416 kts 185°
2026-05-06 11:45 40.02585 141.14674 25443 ft 418 kts 185°
2026-05-06 11:45 39.99657 141.14609 25918 ft 421 kts 185°
2026-05-06 11:45 39.96751 141.14544 26364 ft 423 kts 186°
2026-05-06 11:46 39.93800 141.14479 26878 ft 423 kts 187°
2026-05-06 11:46 39.90852 141.14412 27311 ft 423 kts 187°
2026-05-06 11:46 39.87900 141.14343 27691 ft 426 kts 187°
2026-05-06 11:46 39.84916 141.14276 28098 ft 428 kts 187°